This demonstration page uses our WeatherBlox Daily Observations layout. Learn more.

Left ArrowRight Arrow

Hourly Observations for September 10, 2015

Temp ( °F °C ) Dew Point ( °F °C ) Humidity (%) Winds ( mph kmh ) Pressure ( in mb ) Visibility ( mi km ) Precip ( " mm )
12:51 am 00:51 Partly Cloudy 81 27.2 58 14.4 45 45 NNW 8 13 29.83 1010 10 16.0934 0 0
1:51 am 01:51 Clear 81 27.2 59 15 47 47 NNW 12 19 29.83 1010 10 16.0934 0 0
2:51 am 02:51 Clear 80 26.7 57 13.9 45 45 NNW 6 9 29.83 1010 10 16.0934 0 0
3:51 am 03:51 Clear 78 25.6 59 15 52 52 W 5 7 29.83 1010 10 16.0934 0 0
4:51 am 04:51 Mostly Clear 77 25 60 15.6 56 56 Calm 29.83 1010 10 16.0934 0 0
5:51 am 05:51 Clear 77 25 60 15.6 56 56 S 5 7 29.85 1011 10 16.0934 0 0
6:51 am 06:51 Sunny 76 24.4 60 15.6 58 58 Calm 29.88 1012 10 16.0934 0 0
7:51 am 07:51 Partly Cloudy 79 26.1 61 16.1 54 54 ESE 6 9 29.89 1012 10 16.0934 0 0
9:51 am 09:51 Mostly Cloudy 82 27.8 60 15.6 47 47 SE 5 7 29.89 1012 10 16.0934 0 0
10:51 am 10:51 Mostly Cloudy 83 28.3 60 15.6 46 46 Calm 29.88 1012 10 16.0934 0 0
11:51 am 11:51 Cloudy with Light Rain 82 27.8 61 16.1 49 49 WNW 13 20 29.88 1012 10 16.0934 0 0.0254
12:51 pm 12:51 Cloudy with Light Rain 83 28.3 59 15 44 44 WNW 17 28 29.86 1011 10 16.0934 0 0.0254
1:51 pm 13:51 Cloudy 84 28.9 60 15.6 44 44 WNW 16 26 29.85 1011 10 16.0934 0 0.0254
2:51 pm 14:51 Partly Cloudy 85 29.4 58 14.4 40 40 W 14 22 29.84 1011 10 16.0934 0 0
3:51 pm 15:51 Partly Cloudy 85 29.4 59 15 42 42 WNW 12 19 29.82 1010 10 16.0934 0 0
4:51 pm 16:51 Sunny 85 29.4 58 14.4 40 40 W 12 19 29.8 1009 10 16.0934 0 0
5:51 pm 17:51 Sunny 84 28.9 57 13.9 40 40 W 10 17 29.81 1010 10 16.0934 0 0
6:51 pm 18:51 Clear 81 27.2 59 15 47 47 W 8 13 29.82 1010 10 16.0934 0 0
7:51 pm 19:51 Clear 80 26.7 59 15 49 49 NW 6 9 29.84 1010 10 16.0934 0 0
8:51 pm 20:51 Clear 77 25 60 15.6 56 56 W 6 9 29.86 1011 10 16.0934 0 0
9:51 pm 21:51 Clear 77 25 61 16.1 58 58 NW 7 11 29.86 1011 10 16.0934 0 0
10:51 pm 22:51 Clear 75 23.9 60 15.6 60 60 NW 7 11 29.86 1011 10 16.0934 0 0
11:51 pm 23:51 Clear 74 23.3 61 16.1 64 64 WNW 7 11 29.87 1012 10 16.0934 0 0

Powered by AerisWeather